Regional Weather Roundup
Issued by NWS State College, PA

Home | Current Version | Previous Version | Text Only | Print | Product List | Glossary On
Versions: 1 2 3 4 5 6 7 8 9 10 11 12 13 14 15 16 17 18 19 20 21 22 23 24 25 26 27 28 29 30 31 32 33 34 35 36 37 38 39 40 41 42 43 44 45 46 47 48 49 50
000
ASUS41 KCTP 261810
RWRCTP

REGIONAL WEATHER ROUNDUP
NATIONAL WEATHER SERVICE STATE COLLEGE PA
200 PM EDT THU APR 26 2018

Note: "fair" indicates few or no clouds below 12,000 feet with no
significant weather and/or obstructions to visibility.

* = STATION THAT DOES NOT REPORT PRECIPITATION /E.G. RAIN...SNOW...ETC/
    THUNDER OR FOG.

PAZ002>004-007>009-013>016-020>023-029>032-261900-
WESTERN PENNSYLVANIA

CITY           SKY/WX    TMP DP  RH WIND       PRES   REMARKS
ERIE           FAIR      50  32  50 SW10      29.94F
MEADVILLE      FAIR      51  37  58 W10       29.92S
FRANKLIN*      PTSUNNY   55  37  50 W13       29.92S
NEW CASTLE     FAIR      55  37  50 VRB6      29.93F
BEAVER COUNTY  NOT AVBL
BUTLER*        FAIR      54  36  50 SW8       29.92F
PITTSBURGH INT FAIR      57  36  45 VRB5      29.92F
PITTSBURGH     FAIR      55  38  52 SW8       29.91F
INDIANA*       MOSUNNY   55  37  50 W9G16     29.94F
LATROBE        PTSUNNY   55  37  50 W7        29.93F
WASHINGTON CO* FAIR      55  37  50 W13       29.95F
$$

PAZ004>006-010>012-017>019-024>028-033>037-041-042-045-046-049>053-261900-
CENTRAL PENNSYLVANIA

CITY           SKY/WX    TMP DP  RH WIND       PRES   REMARKS
BRADFORD       FAIR      53  31  42 NW12      29.86S
DUBOIS         FAIR      56  36  47 W14       29.88S
CLEARFIELD     FAIR      58  37  45 W12       29.87F
JOHNSTOWN      FAIR      52  37  56 W13G18    29.89S
ALTOONA        FAIR      58  37  45 VRB5      29.88F
STATE COLLEGE  MOSUNNY   55  39  54 W10       29.87F
WILLIAMSPORT   FAIR      62  39  42 W17G24    29.80F
SELINSGROVE    FAIR      59  42  53 W13       29.84F
FT INDIANTOWN  NOT AVBL
CAPITAL CITY   FAIR      63  39  41 NW10G20   29.84F
HARRISBURG     FAIR      63  42  46 NW14G20   29.83F
YORK           FAIR      62  43  49 W13       29.84F
$$

PAZ038>040-043-044-047-048-054-055-060>062-067>071-261900-
EASTERN PENNSYLVANIA

CITY           SKY/WX    TMP DP  RH WIND       PRES   REMARKS
SCRANTON       FAIR      59  41  51 W10       29.79S
MOUNT POCONO   PTSUNNY   56  40  55 W21G28    29.76S
ALLENTOWN      FAIR      63  42  46 W10G18    29.79F
QUAKERTOWN*    CLEAR     61  43  51 W10       29.81S
READING        FAIR      62  44  51 W9        29.82S
LANCASTER      FAIR      62  45  53 W14       29.83S
COATESVILLE    FAIR      59  41  51 NW12G20   29.84S
POTTSTOWN      FAIR      61  42  49 W14G20    29.84R
BLUE BELL      FAIR      61  43  51 W9        29.83R
DOYLESTOWN     FAIR      62  42  47 W12G21    29.79R
WILLOW GROVE   NOT AVBL
NORTH PHILA    FAIR      66  43  43 W15G23    29.82R
PHILADELPHIA   FAIR      64  42  44 W13       29.82R
$$




USA.gov is the U.S. government's official web portal to all federal, state and local government web resources and services.